Location: Kaarina
(60.4167°N, 22.4167°E)
Time: 11:39:24
(UTC+03:00)

Cosmos 2237 Rocket - Pass Details

Date: 24 August 2019
Orbit: 834 x 851 km, 71.0° (Epoch: 19 September)

Event Time Altitude Azimuth Distance (km) Brightness Sun altitude
Rises 23:38:29 0° 309° (NW) 3,410 6.7 -15.1°
Reaches altitude 10° 23:41:07 10° 317° (NW) 2,476 5.9 -15.2°
Maximum altitude 23:46:25 39° 26° (NNE) 1,265 3.4 -15.5°
Drops below altitude 10° 23:51:44 10° 95° (E) 2,480 4.3 -15.8°
Enters shadow 23:52:52 - 99° (E) 2,877 4.6 -15.9°
